TimeEST,TemperatureF,Dew PointF,Humidity,Sea Level PressureIn,VisibilityMPH,Wind Direction,Wind SpeedMPH,Gust SpeedMPH,PrecipitationIn,Events,Conditions,WindDirDegrees,DateUTC
1:15 AM,30.2,12.2,47,30.10,10.0,WSW,5.8,-,N/A,,Clear,250,2013-02-20 06:15:00
1:35 AM,30.2,12.2,47,30.09,10.0,West,8.1,-,N/A,,Clear,260,2013-02-20 06:35:00
1:55 AM,30.2,12.2,47,30.09,10.0,WSW,9.2,-,N/A,,Clear,240,2013-02-20 06:55:00
2:15 AM,28.4,12.2,51,30.09,10.0,WSW,8.1,-,N/A,,Clear,240,2013-02-20 07:15:00
2:35 AM,28.4,14.0,55,30.10,10.0,WSW,8.1,-,N/A,,Clear,240,2013-02-20 07:35:00
2:55 AM,28.4,14.0,55,30.10,10.0,WSW,5.8,-,N/A,,Clear,250,2013-02-20 07:55:00
3:15 AM,28.4,14.0,55,30.11,10.0,WSW,3.5,-,N/A,,Clear,240,2013-02-20 08:15:00
3:55 AM,26.6,12.2,55,30.11,10.0,WSW,4.6,-,N/A,,Clear,240,2013-02-20 08:55:00
4:15 AM,26.6,14.0,59,30.11,10.0,Calm,Calm,-,N/A,,Clear,0,2013-02-20 09:15:00
4:35 AM,26.6,14.0,59,30.12,10.0,WSW,3.5,-,N/A,,Clear,240,2013-02-20 09:35:00
4:55 AM,24.8,14.0,64,30.13,10.0,West,3.5,-,N/A,,Clear,260,2013-02-20 09:55:00
5:15 AM,26.6,14.0,59,30.13,10.0,West,4.6,-,N/A,,Clear,260,2013-02-20 10:15:00
5:35 AM,24.8,14.0,64,30.13,10.0,West,5.8,-,N/A,,Clear,260,2013-02-20 10:35:00
5:55 AM,24.8,14.0,64,30.14,10.0,West,4.6,-,N/A,,Clear,270,2013-02-20 10:55:00
6:15 AM,26.6,12.2,55,30.14,10.0,West,3.5,-,N/A,,Clear,260,2013-02-20 11:15:00
6:35 AM,23.0,15.8,74,30.14,10.0,West,4.6,-,N/A,,Clear,280,2013-02-20 11:35:00
6:55 AM,21.2,15.8,80,30.14,10.0,WNW,4.6,-,N/A,,Clear,290,2013-02-20 11:55:00
7:15 AM,23.0,14.0,68,30.14,10.0,West,6.9,-,N/A,,Clear,270,2013-02-20 12:15:00
7:35 AM,24.8,14.0,64,30.15,10.0,West,4.6,-,N/A,,Clear,270,2013-02-20 12:35:00
7:55 AM,28.4,14.0,55,30.15,10.0,WSW,3.5,-,N/A,,Clear,250,2013-02-20 12:55:00
8:15 AM,28.4,15.8,59,30.16,10.0,Variable,5.8,-,N/A,,Clear,0,2013-02-20 13:15:00
8:35 AM,30.2,15.8,55,30.16,10.0,West,8.1,-,N/A,,Clear,270,2013-02-20 13:35:00
8:55 AM,30.2,15.8,55,30.16,10.0,West,9.2,-,N/A,,Clear,280,2013-02-20 13:55:00
9:15 AM,30.2,14.0,51,30.17,10.0,West,8.1,-,N/A,,Clear,280,2013-02-20 14:15:00
9:35 AM,30.2,12.2,47,30.16,10.0,West,10.4,-,N/A,,Clear,280,2013-02-20 14:35:00
9:55 AM,32.0,10.4,41,30.16,10.0,WNW,13.8,-,N/A,,Clear,290,2013-02-20 14:55:00
10:15 AM,33.8,10.4,38,30.16,10.0,West,13.8,-,N/A,,Clear,280,2013-02-20 15:15:00
10:35 AM,33.8,8.6,35,30.16,10.0,West,11.5,-,N/A,,Clear,270,2013-02-20 15:35:00
10:55 AM,33.8,8.6,35,30.16,10.0,SW,10.4,-,N/A,,Clear,230,2013-02-20 15:55:00
11:15 AM,33.8,8.6,35,30.16,10.0,WSW,12.7,-,N/A,,Clear,240,2013-02-20 16:15:00
11:35 AM,35.6,8.6,33,30.16,10.0,West,12.7,-,N/A,,Clear,260,2013-02-20 16:35:00
12:15 PM,37.4,6.8,28,30.15,10.0,WNW,12.7,-,N/A,,Clear,290,2013-02-20 17:15:00
12:55 PM,37.4,8.6,30,30.14,10.0,WNW,8.1,-,N/A,,Clear,290,2013-02-20 17:55:00
1:15 PM,39.2,8.6,28,30.13,10.0,West,12.7,-,N/A,,Clear,260,2013-02-20 18:15:00
1:35 PM,39.2,6.8,26,30.12,10.0,WNW,10.4,-,N/A,,Clear,300,2013-02-20 18:35:00
1:55 PM,39.2,8.6,28,30.12,10.0,WNW,8.1,-,N/A,,Clear,290,2013-02-20 18:55:00
2:15 PM,41.0,10.4,29,30.12,10.0,WNW,8.1,-,N/A,,Clear,290,2013-02-20 19:15:00
2:35 PM,39.2,6.8,26,30.11,10.0,WNW,10.4,-,N/A,,Clear,290,2013-02-20 19:35:00
2:55 PM,39.2,5.0,24,30.11,10.0,WNW,8.1,-,N/A,,Clear,290,2013-02-20 19:55:00
3:15 PM,39.2,6.8,26,30.11,10.0,Variable,6.9,-,N/A,,Clear,0,2013-02-20 20:15:00
3:35 PM,39.2,6.8,26,30.11,10.0,West,12.7,-,N/A,,Clear,280,2013-02-20 20:35:00
3:55 PM,39.2,6.8,26,30.11,10.0,West,11.5,-,N/A,,Clear,270,2013-02-20 20:55:00
4:15 PM,39.2,8.6,28,30.11,10.0,West,9.2,-,N/A,,Clear,260,2013-02-20 21:15:00
4:35 PM,39.2,6.8,26,30.11,10.0,WSW,8.1,-,N/A,,Clear,250,2013-02-20 21:35:00
4:55 PM,37.4,8.6,30,30.12,10.0,WSW,10.4,-,N/A,,Clear,250,2013-02-20 21:55:00
5:15 PM,37.4,8.6,30,30.13,10.0,West,9.2,-,N/A,,Clear,260,2013-02-20 22:15:00
5:35 PM,35.6,8.6,33,30.14,10.0,WSW,9.2,-,N/A,,Clear,250,2013-02-20 22:35:00
5:55 PM,35.6,8.6,33,30.14,10.0,WSW,11.5,-,N/A,,Clear,250,2013-02-20 22:55:00
6:15 PM,35.6,8.6,33,30.15,10.0,West,8.1,-,N/A,,Clear,260,2013-02-20 23:15:00
6:35 PM,33.8,8.6,35,30.15,10.0,West,9.2,-,N/A,,Clear,270,2013-02-20 23:35:00
6:55 PM,33.8,8.6,35,30.16,10.0,SW,6.9,-,N/A,,Clear,230,2013-02-20 23:55:00
7:15 PM,33.8,10.4,38,30.16,10.0,WSW,3.5,-,N/A,,Clear,250,2013-02-21 00:15:00
7:35 PM,33.8,10.4,38,30.17,10.0,West,3.5,-,N/A,,Clear,260,2013-02-21 00:35:00
7:55 PM,32.0,10.4,41,30.17,10.0,WSW,4.6,-,N/A,,Clear,240,2013-02-21 00:55:00
8:15 PM,30.2,12.2,47,30.17,10.0,WNW,3.5,-,N/A,,Clear,290,2013-02-21 01:15:00
8:35 PM,26.6,17.6,69,30.17,10.0,NNW,3.5,-,N/A,,Clear,330,2013-02-21 01:35:00
8:55 PM,24.8,15.8,69,30.16,10.0,NNW,3.5,-,N/A,,Clear,330,2013-02-21 01:55:00
9:15 PM,23.0,17.6,80,30.17,10.0,Calm,Calm,-,N/A,,Clear,0,2013-02-21 02:15:00
9:35 PM,24.8,15.8,69,30.18,10.0,Calm,Calm,-,N/A,,Clear,0,2013-02-21 02:35:00
9:55 PM,23.0,15.8,74,30.17,10.0,Calm,Calm,-,N/A,,Clear,0,2013-02-21 02:55:00
10:15 PM,24.8,15.8,69,30.17,10.0,Calm,Calm,-,N/A,,Clear,0,2013-02-21 03:15:00
10:35 PM,23.0,15.8,74,30.18,10.0,Calm,Calm,-,N/A,,Clear,0,2013-02-21 03:35:00
10:55 PM,23.0,15.8,74,30.17,10.0,Calm,Calm,-,N/A,,Clear,0,2013-02-21 03:55:00
11:15 PM,21.2,14.0,74,30.16,10.0,Calm,Calm,-,N/A,,Clear,0,2013-02-21 04:15:00
11:35 PM,23.0,14.0,68,30.17,10.0,Calm,Calm,-,N/A,,Clear,0,2013-02-21 04:35:00
11:55 PM,21.2,15.8,80,30.17,10.0,Calm,Calm,-,N/A,,Clear,0,2013-02-21 04:55:00